Location: Oberwangen
(47.4286°N, 8.9679°E)
Time: 09:09:28
(UTC+00:00)

Cosmos 1447 Rocket - Pass Details

Date: 01 November 2021
Orbit: 953 x 996 km, 82.9° (Epoch: 27 November)

Event Time Altitude Azimuth Distance (km) Brightness Sun altitude
Rises 18:40:52 0° 340° (NNW) 3,643 7.8 -26.4°
Reaches altitude 10° 18:43:53 10° 326° (NW) 2,693 7.3 -27.0°
Maximum altitude 18:48:27 22° 278° (W) 1,948 6.8 -27.7°
Drops below altitude 10° 18:53:00 10° 230° (SW) 2,692 7.3 -28.5°
Sets 18:56:03 0° 216° (SW) 3,639 7.8 -29.0°
